Find OneWeb SL0434

NORAD ID: 51631 Int'l Des: 2022-012 Owner: ONEWEBN Country: UK Constellation: oneweb operational
LEOCIRCULARPOLARONEWEB_TYPE

現在のビュー

3D地球を読み込み中...

About OneWeb SL0434

OneWeb SL0434 (NORAD 51631) is a oneweb constellation satellite launched Feb 10, 2022 by ONEWEBN of UK. It operates in LEO, CIRCULAR, POLAR, ONEWEB_TYPE orbit with a mass of 148.00 kg.

OneWeb SL0434について

説明を読み込み中...

次回通過

Passes for default location (London). Set your location on the main map for personalized predictions.

高度履歴

Loading altitude history...

軌道要素

1 51631U 22012K 26173.07495535 .00000507 00000-0 14206-2 0 9997
2 51631 87.8830 35.3186 0002219 69.3692 290.7673 13.10218726209968
Epoch: Jun 22, 2026 • Age: 31 hours

現在のステータス

高度 1225.1 km
速度 7.24 km/s
衛星直下点 -3.56°S, 10.69°W
打ち上げ日 Feb 10, 2022
運用期間 4.3 years
タイプ internet

技術仕様

分類 Payload
質量 148.00 kg
乾燥質量 140.00 kg
総質量 148.00 kg
長さ 1.30 m
直径 1.00 m
スパン 5.00 m
形状 Trapezoid+2 pan
製造者 ONEWUS
バスタイプ ARROW
フェーズステータス In Orbit
所有者/国 ONEWEBN/UK

Most Searched